owner,sensor,date,latitude,longitude,vertical_datum,sea_water_practical_salinity,qcFlag 
FWRI,ioos:station:wmo:mtbf1:1,2012-08-01T00:07:00Z,27.6610,-82.5940,0.0,29.17,1111122 
FWRI,ioos:station:wmo:mtbf1:1,2012-08-01T00:37:00Z,27.6610,-82.5940,0.0,28.93,1111122 
FWRI,ioos:station:wmo:mtbf1:1,2012-08-01T01:07:00Z,27.6610,-82.5940,0.0,28.81,1111122 
FWRI,ioos:station:wmo:mtbf1:1,2012-08-01T01:37:00Z,27.6610,-82.5940,0.0,28.72,1111122 
FWRI,ioos:station:wmo:mtbf1:1,2012-08-01T02:07:00Z,27.6610,-82.5940,0.0,28.39,1111122 
FWRI,ioos:station:wmo:mtbf1:1,2012-08-01T02:37:00Z,27.6610,-82.5940,0.0,28.41,1111122 
FWRI,ioos:station:wmo:mtbf1:1,2012-08-01T03:07:00Z,27.6610,-82.5940,0.0,28.68,1111122 
FWRI,ioos:station:wmo:mtbf1:1,2012-08-01T03:37:00Z,27.6610,-82.5940,0.0,28.88,1111122 
FWRI,ioos:station:wmo:mtbf1:1,2012-08-01T04:07:00Z,27.6610,-82.5940,0.0,29.09,1111122 
FWRI,ioos:station:wmo:mtbf1:1,2012-08-01T04:37:00Z,27.6610,-82.5940,0.0,29.26,1111122 
FWRI,ioos:station:wmo:mtbf1:1,2012-08-01T05:07:00Z,27.6610,-82.5940,0.0,29.49,1111122 
FWRI,ioos:station:wmo:mtbf1:1,2012-08-01T05:37:00Z,27.6610,-82.5940,0.0,29.68,1111122 
FWRI,ioos:station:wmo:mtbf1:1,2012-08-01T06:07:00Z,27.6610,-82.5940,0.0,29.98,1111122 
FWRI,ioos:station:wmo:mtbf1:1,2012-08-01T06:37:00Z,27.6610,-82.5940,0.0,30.15,1111122 
FWRI,ioos:station:wmo:mtbf1:1,2012-08-01T07:07:00Z,27.6610,-82.5940,0.0,30.3,1111122 
FWRI,ioos:station:wmo:mtbf1:1,2012-08-01T07:37:00Z,27.6610,-82.5940,0.0,30.45,1111122 
FWRI,ioos:station:wmo:mtbf1:1,2012-08-01T08:07:00Z,27.6610,-82.5940,0.0,30.59,1111122 
FWRI,ioos:station:wmo:mtbf1:1,2012-08-01T08:37:00Z,27.6610,-82.5940,0.0,30.58,1111122 
FWRI,ioos:station:wmo:mtbf1:1,2012-08-01T09:07:00Z,27.6610,-82.5940,0.0,30.59,1111122 
FWRI,ioos:station:wmo:mtbf1:1,2012-08-01T09:37:00Z,27.6610,-82.5940,0.0,30.44,1111122 
FWRI,ioos:station:wmo:mtbf1:1,2012-08-01T10:07:00Z,27.6610,-82.5940,0.0,30.36,1111122 
FWRI,ioos:station:wmo:mtbf1:1,2012-08-01T10:37:00Z,27.6610,-82.5940,0.0,30.12,1111122 
FWRI,ioos:station:wmo:mtbf1:1,2012-08-01T11:07:00Z,27.6610,-82.5940,0.0,30.12,1111122 
FWRI,ioos:station:wmo:mtbf1:1,2012-08-01T11:37:00Z,27.6610,-82.5940,0.0,30.29,1111122 
FWRI,ioos:station:wmo:mtbf1:1,2012-08-01T12:07:00Z,27.6610,-82.5940,0.0,29.88,1111122 
FWRI,ioos:station:wmo:mtbf1:1,2012-08-01T12:37:00Z,27.6610,-82.5940,0.0,30.15,1111122 
FWRI,ioos:station:wmo:mtbf1:1,2012-08-01T13:07:00Z,27.6610,-82.5940,0.0,30.22,1111122 
FWRI,ioos:station:wmo:mtbf1:1,2012-08-01T13:37:00Z,27.6610,-82.5940,0.0,30.92,1111122 
FWRI,ioos:station:wmo:mtbf1:1,2012-08-01T14:07:00Z,27.6610,-82.5940,0.0,30.83,1111122 
FWRI,ioos:station:wmo:mtbf1:1,2012-08-01T14:37:00Z,27.6610,-82.5940,0.0,30.98,1111122 
FWRI,ioos:station:wmo:mtbf1:1,2012-08-01T15:07:00Z,27.6610,-82.5940,0.0,31.34,1111122 
FWRI,ioos:station:wmo:mtbf1:1,2012-08-01T15:37:00Z,27.6610,-82.5940,0.0,31.71,1111122 
FWRI,ioos:station:wmo:mtbf1:1,2012-08-01T16:07:00Z,27.6610,-82.5940,0.0,32.05,1111122 
FWRI,ioos:station:wmo:mtbf1:1,2012-08-01T16:37:00Z,27.6610,-82.5940,0.0,32.13,1111122 
FWRI,ioos:station:wmo:mtbf1:1,2012-08-01T17:07:00Z,27.6610,-82.5940,0.0,32.39,1111122 
FWRI,ioos:station:wmo:mtbf1:1,2012-08-01T17:37:00Z,27.6610,-82.5940,0.0,32.33,1111122 
FWRI,ioos:station:wmo:mtbf1:1,2012-08-01T18:07:00Z,27.6610,-82.5940,0.0,32.47,1111122 
FWRI,ioos:station:wmo:mtbf1:1,2012-08-01T18:37:00Z,27.6610,-82.5940,0.0,32.27,1111122 
FWRI,ioos:station:wmo:mtbf1:1,2012-08-01T19:07:00Z,27.6610,-82.5940,0.0,32.11,1111122 
FWRI,ioos:station:wmo:mtbf1:1,2012-08-01T19:37:00Z,27.6610,-82.5940,0.0,32.13,1111122 
FWRI,ioos:station:wmo:mtbf1:1,2012-08-01T20:07:00Z,27.6610,-82.5940,0.0,32.07,1111122 
FWRI,ioos:station:wmo:mtbf1:1,2012-08-01T20:37:00Z,27.6610,-82.5940,0.0,31.87,1111122 
FWRI,ioos:station:wmo:mtbf1:1,2012-08-01T21:07:00Z,27.6610,-82.5940,0.0,31.45,1111122 
FWRI,ioos:station:wmo:mtbf1:1,2012-08-01T21:37:00Z,27.6610,-82.5940,0.0,31.1,1111122 
FWRI,ioos:station:wmo:mtbf1:1,2012-08-01T22:07:00Z,27.6610,-82.5940,0.0,30.63,1111122 
FWRI,ioos:station:wmo:mtbf1:1,2012-08-01T22:37:00Z,27.6610,-82.5940,0.0,30.32,1111122 
FWRI,ioos:station:wmo:mtbf1:1,2012-08-01T23:07:00Z,27.6610,-82.5940,0.0,30.04,1111122 
FWRI,ioos:station:wmo:mtbf1:1,2012-08-01T23:37:00Z,27.6610,-82.5940,0.0,29.73,1111122 
FWRI,ioos:station:wmo:mtbf1:1,2012-08-02T00:07:00Z,27.6610,-82.5940,0.0,29.51,1111122 
FWRI,ioos:station:wmo:mtbf1:1,2012-08-02T00:37:00Z,27.6610,-82.5940,0.0,29.32,1111122 
FWRI,ioos:station:wmo:mtbf1:1,2012-08-02T01:07:00Z,27.6610,-82.5940,0.0,29.17,1111122 
FWRI,ioos:station:wmo:mtbf1:1,2012-08-02T01:37:00Z,27.6610,-82.5940,0.0,28.98,1111122 
FWRI,ioos:station:wmo:mtbf1:1,2012-08-02T02:07:00Z,27.6610,-82.5940,0.0,28.99,1111122 
FWRI,ioos:station:wmo:mtbf1:1,2012-08-02T02:37:00Z,27.6610,-82.5940,0.0,28.79,1111122 
FWRI,ioos:station:wmo:mtbf1:1,2012-08-02T03:07:00Z,27.6610,-82.5940,0.0,28.85,1111122 
FWRI,ioos:station:wmo:mtbf1:1,2012-08-02T03:37:00Z,27.6610,-82.5940,0.0,29.19,1111122 
FWRI,ioos:station:wmo:mtbf1:1,2012-08-02T04:07:00Z,27.6610,-82.5940,0.0,29.34,1111122 
FWRI,ioos:station:wmo:mtbf1:1,2012-08-02T04:37:00Z,27.6610,-82.5940,0.0,29.52,1111122 
FWRI,ioos:station:wmo:mtbf1:1,2012-08-02T05:07:00Z,27.6610,-82.5940,0.0,29.79,1111122 
FWRI,ioos:station:wmo:mtbf1:1,2012-08-02T05:37:00Z,27.6610,-82.5940,0.0,29.87,1111122 
FWRI,ioos:station:wmo:mtbf1:1,2012-08-02T06:07:00Z,27.6610,-82.5940,0.0,29.93,1111122 
FWRI,ioos:station:wmo:mtbf1:1,2012-08-02T06:37:00Z,27.6610,-82.5940,0.0,30.17,1111122 
FWRI,ioos:station:wmo:mtbf1:1,2012-08-02T07:07:00Z,27.6610,-82.5940,0.0,30.45,1111122 
FWRI,ioos:station:wmo:mtbf1:1,2012-08-02T07:37:00Z,27.6610,-82.5940,0.0,30.53,1111122 
FWRI,ioos:station:wmo:mtbf1:1,2012-08-02T08:07:00Z,27.6610,-82.5940,0.0,30.68,1111122 
FWRI,ioos:station:wmo:mtbf1:1,2012-08-02T08:37:00Z,27.6610,-82.5940,0.0,30.78,1111122 
FWRI,ioos:station:wmo:mtbf1:1,2012-08-02T09:07:00Z,27.6610,-82.5940,0.0,30.57,1111122 
FWRI,ioos:station:wmo:mtbf1:1,2012-08-02T09:37:00Z,27.6610,-82.5940,0.0,30.49,1111122 
FWRI,ioos:station:wmo:mtbf1:1,2012-08-02T10:07:00Z,27.6610,-82.5940,0.0,30.14,1111122 
FWRI,ioos:station:wmo:mtbf1:1,2012-08-02T10:37:00Z,27.6610,-82.5940,0.0,30.05,1111122 
FWRI,ioos:station:wmo:mtbf1:1,2012-08-02T11:07:00Z,27.6610,-82.5940,0.0,29.94,1111122 
FWRI,ioos:station:wmo:mtbf1:1,2012-08-02T11:37:00Z,27.6610,-82.5940,0.0,29.74,1111122 
FWRI,ioos:station:wmo:mtbf1:1,2012-08-02T12:07:00Z,27.6610,-82.5940,0.0,29.5,1111122 
FWRI,ioos:station:wmo:mtbf1:1,2012-08-02T12:37:00Z,27.6610,-82.5940,0.0,29.51,1111122 
FWRI,ioos:station:wmo:mtbf1:1,2012-08-02T13:07:00Z,27.6610,-82.5940,0.0,29.5,1111122 
FWRI,ioos:station:wmo:mtbf1:1,2012-08-02T13:37:00Z,27.6610,-82.5940,0.0,29.8,1111122 
FWRI,ioos:station:wmo:mtbf1:1,2012-08-02T14:07:00Z,27.6610,-82.5940,0.0,30.51,1111122 
FWRI,ioos:station:wmo:mtbf1:1,2012-08-02T14:37:00Z,27.6610,-82.5940,0.0,30.44,1111122 
FWRI,ioos:station:wmo:mtbf1:1,2012-08-02T15:07:00Z,27.6610,-82.5940,0.0,30.47,1111122 
FWRI,ioos:station:wmo:mtbf1:1,2012-08-02T15:37:00Z,27.6610,-82.5940,0.0,30.82,1111122 
FWRI,ioos:station:wmo:mtbf1:1,2012-08-02T16:07:00Z,27.6610,-82.5940,0.0,31.07,1111122 
FWRI,ioos:station:wmo:mtbf1:1,2012-08-02T16:37:00Z,27.6610,-82.5940,0.0,31.64,1111122 
FWRI,ioos:station:wmo:mtbf1:1,2012-08-02T17:07:00Z,27.6610,-82.5940,0.0,32.0,1111122 
FWRI,ioos:station:wmo:mtbf1:1,2012-08-02T17:37:00Z,27.6610,-82.5940,0.0,32.23,1111122 
FWRI,ioos:station:wmo:mtbf1:1,2012-08-02T18:07:00Z,27.6610,-82.5940,0.0,32.26,1111122 
FWRI,ioos:station:wmo:mtbf1:1,2012-08-02T18:37:00Z,27.6610,-82.5940,0.0,32.11,1111122 
FWRI,ioos:station:wmo:mtbf1:1,2012-08-02T19:07:00Z,27.6610,-82.5940,0.0,32.28,1111122 
FWRI,ioos:station:wmo:mtbf1:1,2012-08-02T19:37:00Z,27.6610,-82.5940,0.0,32.14,1111122 
FWRI,ioos:station:wmo:mtbf1:1,2012-08-02T20:07:00Z,27.6610,-82.5940,0.0,32.13,1111122 
FWRI,ioos:station:wmo:mtbf1:1,2012-08-02T20:37:00Z,27.6610,-82.5940,0.0,31.89,1111122 
FWRI,ioos:station:wmo:mtbf1:1,2012-08-02T21:07:00Z,27.6610,-82.5940,0.0,31.98,1111122 
FWRI,ioos:station:wmo:mtbf1:1,2012-08-02T21:37:00Z,27.6610,-82.5940,0.0,31.79,1111122 
FWRI,ioos:station:wmo:mtbf1:1,2012-08-02T22:07:00Z,27.6610,-82.5940,0.0,31.22,1111122 
FWRI,ioos:station:wmo:mtbf1:1,2012-08-02T22:37:00Z,27.6610,-82.5940,0.0,30.74,1111122 
FWRI,ioos:station:wmo:mtbf1:1,2012-08-02T23:07:00Z,27.6610,-82.5940,0.0,30.47,1111122 
FWRI,ioos:station:wmo:mtbf1:1,2012-08-02T23:37:00Z,27.6610,-82.5940,0.0,30.06,1111122 
FWRI,ioos:station:wmo:mtbf1:1,2012-08-03T00:07:00Z,27.6610,-82.5940,0.0,29.81,1111122 
FWRI,ioos:station:wmo:mtbf1:1,2012-08-03T00:37:00Z,27.6610,-82.5940,0.0,29.5,1111122 
FWRI,ioos:station:wmo:mtbf1:1,2012-08-03T01:07:00Z,27.6610,-82.5940,0.0,29.22,1111122 
FWRI,ioos:station:wmo:mtbf1:1,2012-08-03T01:37:00Z,27.6610,-82.5940,0.0,29.07,1111122 
FWRI,ioos:station:wmo:mtbf1:1,2012-08-03T02:07:00Z,27.6610,-82.5940,0.0,28.96,1111122 
FWRI,ioos:station:wmo:mtbf1:1,2012-08-03T02:37:00Z,27.6610,-82.5940,0.0,28.94,1111122 
FWRI,ioos:station:wmo:mtbf1:1,2012-08-03T03:07:00Z,27.6610,-82.5940,0.0,28.57,1111122 
FWRI,ioos:station:wmo:mtbf1:1,2012-08-03T03:37:00Z,27.6610,-82.5940,0.0,28.73,1111122 
FWRI,ioos:station:wmo:mtbf1:1,2012-08-03T04:07:00Z,27.6610,-82.5940,0.0,29.21,1111122 
FWRI,ioos:station:wmo:mtbf1:1,2012-08-03T04:37:00Z,27.6610,-82.5940,0.0,29.27,1111122 
FWRI,ioos:station:wmo:mtbf1:1,2012-08-03T05:07:00Z,27.6610,-82.5940,0.0,29.46,1111122 
FWRI,ioos:station:wmo:mtbf1:1,2012-08-03T05:37:00Z,27.6610,-82.5940,0.0,29.61,1111122 
FWRI,ioos:station:wmo:mtbf1:1,2012-08-03T06:07:00Z,27.6610,-82.5940,0.0,29.81,1111122 
FWRI,ioos:station:wmo:mtbf1:1,2012-08-03T06:37:00Z,27.6610,-82.5940,0.0,30.08,1111122 
FWRI,ioos:station:wmo:mtbf1:1,2012-08-03T07:07:00Z,27.6610,-82.5940,0.0,30.22,1111122 
FWRI,ioos:station:wmo:mtbf1:1,2012-08-03T07:37:00Z,27.6610,-82.5940,0.0,30.27,1111122 
FWRI,ioos:station:wmo:mtbf1:1,2012-08-03T08:07:00Z,27.6610,-82.5940,0.0,30.48,1111122 
FWRI,ioos:station:wmo:mtbf1:1,2012-08-03T08:37:00Z,27.6610,-82.5940,0.0,30.57,1111122 
FWRI,ioos:station:wmo:mtbf1:1,2012-08-03T09:07:00Z,27.6610,-82.5940,0.0,30.55,1111122 
FWRI,ioos:station:wmo:mtbf1:1,2012-08-03T09:37:00Z,27.6610,-82.5940,0.0,30.36,1111122 
FWRI,ioos:station:wmo:mtbf1:1,2012-08-03T10:07:00Z,27.6610,-82.5940,0.0,30.44,1111122 
FWRI,ioos:station:wmo:mtbf1:1,2012-08-03T10:37:00Z,27.6610,-82.5940,0.0,29.97,1111122 
FWRI,ioos:station:wmo:mtbf1:1,2012-08-03T11:07:00Z,27.6610,-82.5940,0.0,29.92,1111122 
FWRI,ioos:station:wmo:mtbf1:1,2012-08-03T11:37:00Z,27.6610,-82.5940,0.0,29.72,1111122 
FWRI,ioos:station:wmo:mtbf1:1,2012-08-03T12:07:00Z,27.6610,-82.5940,0.0,29.82,1111122 
FWRI,ioos:station:wmo:mtbf1:1,2012-08-03T12:37:00Z,27.6610,-82.5940,0.0,29.62,1111122 
FWRI,ioos:station:wmo:mtbf1:1,2012-08-03T13:07:00Z,27.6610,-82.5940,0.0,29.4,1111122 
FWRI,ioos:station:wmo:mtbf1:1,2012-08-03T13:37:00Z,27.6610,-82.5940,0.0,29.75,1111122 
FWRI,ioos:station:wmo:mtbf1:1,2012-08-03T14:07:00Z,27.6610,-82.5940,0.0,29.49,1111122 
FWRI,ioos:station:wmo:mtbf1:1,2012-08-03T14:37:00Z,27.6610,-82.5940,0.0,29.47,1111122 
FWRI,ioos:station:wmo:mtbf1:1,2012-08-03T15:07:00Z,27.6610,-82.5940,0.0,30.03,1111122 
FWRI,ioos:station:wmo:mtbf1:1,2012-08-03T15:37:00Z,27.6610,-82.5940,0.0,30.23,1111122 
FWRI,ioos:station:wmo:mtbf1:1,2012-08-03T16:07:00Z,27.6610,-82.5940,0.0,30.37,1111122 
FWRI,ioos:station:wmo:mtbf1:1,2012-08-03T16:37:00Z,27.6610,-82.5940,0.0,30.75,1111122 
FWRI,ioos:station:wmo:mtbf1:1,2012-08-03T17:07:00Z,27.6610,-82.5940,0.0,31.14,1111122 
FWRI,ioos:station:wmo:mtbf1:1,2012-08-03T17:37:00Z,27.6610,-82.5940,0.0,31.27,1111122 
FWRI,ioos:station:wmo:mtbf1:1,2012-08-03T18:07:00Z,27.6610,-82.5940,0.0,31.57,1111122 
FWRI,ioos:station:wmo:mtbf1:1,2012-08-03T18:37:00Z,27.6610,-82.5940,0.0,31.82,1111122 
FWRI,ioos:station:wmo:mtbf1:1,2012-08-03T19:07:00Z,27.6610,-82.5940,0.0,31.97,1111122 
FWRI,ioos:station:wmo:mtbf1:1,2012-08-03T19:37:00Z,27.6610,-82.5940,0.0,31.87,1111122 
FWRI,ioos:station:wmo:mtbf1:1,2012-08-03T20:07:00Z,27.6610,-82.5940,0.0,31.92,1111122 
FWRI,ioos:station:wmo:mtbf1:1,2012-08-03T20:37:00Z,27.6610,-82.5940,0.0,31.9,1111122 
FWRI,ioos:station:wmo:mtbf1:1,2012-08-03T21:07:00Z,27.6610,-82.5940,0.0,31.79,1111122 
FWRI,ioos:station:wmo:mtbf1:1,2012-08-03T21:37:00Z,27.6610,-82.5940,0.0,31.62,1111122 
FWRI,ioos:station:wmo:mtbf1:1,2012-08-03T22:07:00Z,27.6610,-82.5940,0.0,31.4,1111122 
FWRI,ioos:station:wmo:mtbf1:1,2012-08-03T22:37:00Z,27.6610,-82.5940,0.0,31.39,1111122 
FWRI,ioos:station:wmo:mtbf1:1,2012-08-03T23:07:00Z,27.6610,-82.5940,0.0,30.91,1111122 
FWRI,ioos:station:wmo:mtbf1:1,2012-08-03T23:37:00Z,27.6610,-82.5940,0.0,30.5,1111122 
FWRI,ioos:station:wmo:mtbf1:1,2012-08-04T00:07:00Z,27.6610,-82.5940,0.0,30.24,1111122 
FWRI,ioos:station:wmo:mtbf1:1,2012-08-04T00:37:00Z,27.6610,-82.5940,0.0,30.22,1111122 
FWRI,ioos:station:wmo:mtbf1:1,2012-08-04T01:07:00Z,27.6610,-82.5940,0.0,29.76,1111122 
FWRI,ioos:station:wmo:mtbf1:1,2012-08-04T01:37:00Z,27.6610,-82.5940,0.0,29.44,1111122 
FWRI,ioos:station:wmo:mtbf1:1,2012-08-04T02:07:00Z,27.6610,-82.5940,0.0,29.08,1111122 
FWRI,ioos:station:wmo:mtbf1:1,2012-08-04T02:37:00Z,27.6610,-82.5940,0.0,28.92,1111122 
FWRI,ioos:station:wmo:mtbf1:1,2012-08-04T03:07:00Z,27.6610,-82.5940,0.0,28.86,1111122 
FWRI,ioos:station:wmo:mtbf1:1,2012-08-04T03:37:00Z,27.6610,-82.5940,0.0,28.69,1111122 
FWRI,ioos:station:wmo:mtbf1:1,2012-08-04T04:07:00Z,27.6610,-82.5940,0.0,28.77,1111122 
FWRI,ioos:station:wmo:mtbf1:1,2012-08-04T04:37:00Z,27.6610,-82.5940,0.0,29.58,1111122 
FWRI,ioos:station:wmo:mtbf1:1,2012-08-04T05:07:00Z,27.6610,-82.5940,0.0,29.66,1111122 
FWRI,ioos:station:wmo:mtbf1:1,2012-08-04T05:37:00Z,27.6610,-82.5940,0.0,29.78,1111122 
FWRI,ioos:station:wmo:mtbf1:1,2012-08-04T06:07:00Z,27.6610,-82.5940,0.0,29.88,1111122 
FWRI,ioos:station:wmo:mtbf1:1,2012-08-04T06:37:00Z,27.6610,-82.5940,0.0,30.0,1111122 
FWRI,ioos:station:wmo:mtbf1:1,2012-08-04T07:07:00Z,27.6610,-82.5940,0.0,30.14,1111122 
FWRI,ioos:station:wmo:mtbf1:1,2012-08-04T07:37:00Z,27.6610,-82.5940,0.0,30.45,1111122 
FWRI,ioos:station:wmo:mtbf1:1,2012-08-04T08:07:00Z,27.6610,-82.5940,0.0,30.65,1111122 
FWRI,ioos:station:wmo:mtbf1:1,2012-08-04T08:37:00Z,27.6610,-82.5940,0.0,30.85,1111122 
FWRI,ioos:station:wmo:mtbf1:1,2012-08-04T09:07:00Z,27.6610,-82.5940,0.0,30.94,1111122 
FWRI,ioos:station:wmo:mtbf1:1,2012-08-04T09:37:00Z,27.6610,-82.5940,0.0,30.94,1111122 
FWRI,ioos:station:wmo:mtbf1:1,2012-08-04T10:07:00Z,27.6610,-82.5940,0.0,30.89,1111122 
FWRI,ioos:station:wmo:mtbf1:1,2012-08-04T10:37:00Z,27.6610,-82.5940,0.0,30.63,1111122 
FWRI,ioos:station:wmo:mtbf1:1,2012-08-04T11:07:00Z,27.6610,-82.5940,0.0,30.21,1111122 
FWRI,ioos:station:wmo:mtbf1:1,2012-08-04T11:37:00Z,27.6610,-82.5940,0.0,30.13,1111122 
FWRI,ioos:station:wmo:mtbf1:1,2012-08-04T12:07:00Z,27.6610,-82.5940,0.0,30.3,1111122 
FWRI,ioos:station:wmo:mtbf1:1,2012-08-04T12:37:00Z,27.6610,-82.5940,0.0,30.1,1111122 
FWRI,ioos:station:wmo:mtbf1:1,2012-08-04T13:07:00Z,27.6610,-82.5940,0.0,29.9,1111122 
FWRI,ioos:station:wmo:mtbf1:1,2012-08-04T13:37:00Z,27.6610,-82.5940,0.0,29.67,1111122 
FWRI,ioos:station:wmo:mtbf1:1,2012-08-04T14:07:00Z,27.6610,-82.5940,0.0,29.77,1111122 
FWRI,ioos:station:wmo:mtbf1:1,2012-08-04T14:37:00Z,27.6610,-82.5940,0.0,29.49,1111122 
FWRI,ioos:station:wmo:mtbf1:1,2012-08-04T15:07:00Z,27.6610,-82.5940,0.0,29.51,1111122 
FWRI,ioos:station:wmo:mtbf1:1,2012-08-04T15:37:00Z,27.6610,-82.5940,0.0,29.95,1111122 
FWRI,ioos:station:wmo:mtbf1:1,2012-08-04T16:07:00Z,27.6610,-82.5940,0.0,30.16,1111122 
FWRI,ioos:station:wmo:mtbf1:1,2012-08-04T16:37:00Z,27.6610,-82.5940,0.0,30.21,1111122 
FWRI,ioos:station:wmo:mtbf1:1,2012-08-04T17:07:00Z,27.6610,-82.5940,0.0,30.5,1111122 
FWRI,ioos:station:wmo:mtbf1:1,2012-08-04T17:37:00Z,27.6610,-82.5940,0.0,30.86,1111122 
FWRI,ioos:station:wmo:mtbf1:1,2012-08-04T18:07:00Z,27.6610,-82.5940,0.0,31.17,1111122 
FWRI,ioos:station:wmo:mtbf1:1,2012-08-04T18:37:00Z,27.6610,-82.5940,0.0,31.4,1111122 
FWRI,ioos:station:wmo:mtbf1:1,2012-08-04T19:07:00Z,27.6610,-82.5940,0.0,31.46,1111122 
FWRI,ioos:station:wmo:mtbf1:1,2012-08-04T19:37:00Z,27.6610,-82.5940,0.0,31.5,1111122 
FWRI,ioos:station:wmo:mtbf1:1,2012-08-04T20:07:00Z,27.6610,-82.5940,0.0,31.51,1111122 
FWRI,ioos:station:wmo:mtbf1:1,2012-08-04T20:37:00Z,27.6610,-82.5940,0.0,31.61,1111122 
FWRI,ioos:station:wmo:mtbf1:1,2012-08-04T21:07:00Z,27.6610,-82.5940,0.0,31.64,1111122 
FWRI,ioos:station:wmo:mtbf1:1,2012-08-04T21:37:00Z,27.6610,-82.5940,0.0,31.61,1111122 
FWRI,ioos:station:wmo:mtbf1:1,2012-08-04T22:07:00Z,27.6610,-82.5940,0.0,31.51,1111122 
FWRI,ioos:station:wmo:mtbf1:1,2012-08-04T22:37:00Z,27.6610,-82.5940,0.0,31.37,1111122 
FWRI,ioos:station:wmo:mtbf1:1,2012-08-04T23:07:00Z,27.6610,-82.5940,0.0,31.33,1111122 
FWRI,ioos:station:wmo:mtbf1:1,2012-08-04T23:37:00Z,27.6610,-82.5940,0.0,30.87,1111122 
FWRI,ioos:station:wmo:mtbf1:1,2012-08-05T00:07:00Z,27.6610,-82.5940,0.0,30.48,1111122 
FWRI,ioos:station:wmo:mtbf1:1,2012-08-05T00:37:00Z,27.6610,-82.5940,0.0,30.31,1111122 
FWRI,ioos:station:wmo:mtbf1:1,2012-08-05T01:07:00Z,27.6610,-82.5940,0.0,30.2,1111122 
FWRI,ioos:station:wmo:mtbf1:1,2012-08-05T01:37:00Z,27.6610,-82.5940,0.0,29.85,1111122 
FWRI,ioos:station:wmo:mtbf1:1,2012-08-05T02:07:00Z,27.6610,-82.5940,0.0,29.67,1111122 
FWRI,ioos:station:wmo:mtbf1:1,2012-08-05T02:37:00Z,27.6610,-82.5940,0.0,29.47,1111122 
FWRI,ioos:station:wmo:mtbf1:1,2012-08-05T03:07:00Z,27.6610,-82.5940,0.0,29.14,1111122 
FWRI,ioos:station:wmo:mtbf1:1,2012-08-05T03:37:00Z,27.6610,-82.5940,0.0,28.74,1111122 
FWRI,ioos:station:wmo:mtbf1:1,2012-08-05T04:07:00Z,27.6610,-82.5940,0.0,28.84,1111122 
FWRI,ioos:station:wmo:mtbf1:1,2012-08-05T04:37:00Z,27.6610,-82.5940,0.0,29.45,1111122 
FWRI,ioos:station:wmo:mtbf1:1,2012-08-05T05:07:00Z,27.6610,-82.5940,0.0,29.7,1111122 
FWRI,ioos:station:wmo:mtbf1:1,2012-08-05T05:37:00Z,27.6610,-82.5940,0.0,29.71,1111122 
FWRI,ioos:station:wmo:mtbf1:1,2012-08-05T06:07:00Z,27.6610,-82.5940,0.0,29.78,1111122 
FWRI,ioos:station:wmo:mtbf1:1,2012-08-05T06:37:00Z,27.6610,-82.5940,0.0,30.04,1111122 
FWRI,ioos:station:wmo:mtbf1:1,2012-08-05T07:07:00Z,27.6610,-82.5940,0.0,30.15,1111122 
FWRI,ioos:station:wmo:mtbf1:1,2012-08-05T07:37:00Z,27.6610,-82.5940,0.0,30.25,1111122 
FWRI,ioos:station:wmo:mtbf1:1,2012-08-05T08:07:00Z,27.6610,-82.5940,0.0,30.47,1111122 
FWRI,ioos:station:wmo:mtbf1:1,2012-08-05T08:37:00Z,27.6610,-82.5940,0.0,30.65,1111122 
FWRI,ioos:station:wmo:mtbf1:1,2012-08-05T09:07:00Z,27.6610,-82.5940,0.0,30.83,1111122 
FWRI,ioos:station:wmo:mtbf1:1,2012-08-05T09:37:00Z,27.6610,-82.5940,0.0,30.97,1111122 
FWRI,ioos:station:wmo:mtbf1:1,2012-08-05T10:07:00Z,27.6610,-82.5940,0.0,30.97,1111122 
FWRI,ioos:station:wmo:mtbf1:1,2012-08-05T10:37:00Z,27.6610,-82.5940,0.0,30.89,1111122 
FWRI,ioos:station:wmo:mtbf1:1,2012-08-05T11:07:00Z,27.6610,-82.5940,0.0,30.79,1111122 
FWRI,ioos:station:wmo:mtbf1:1,2012-08-05T11:37:00Z,27.6610,-82.5940,0.0,30.41,1111122 
FWRI,ioos:station:wmo:mtbf1:1,2012-08-05T12:07:00Z,27.6610,-82.5940,0.0,30.34,1111122 
FWRI,ioos:station:wmo:mtbf1:1,2012-08-05T12:37:00Z,27.6610,-82.5940,0.0,30.39,1111122 
FWRI,ioos:station:wmo:mtbf1:1,2012-08-05T13:07:00Z,27.6610,-82.5940,0.0,30.13,1111122 
FWRI,ioos:station:wmo:mtbf1:1,2012-08-05T13:37:00Z,27.6610,-82.5940,0.0,30.06,1111122 
FWRI,ioos:station:wmo:mtbf1:1,2012-08-05T14:07:00Z,27.6610,-82.5940,0.0,29.93,1111122 
FWRI,ioos:station:wmo:mtbf1:1,2012-08-05T14:37:00Z,27.6610,-82.5940,0.0,29.78,1111122 
FWRI,ioos:station:wmo:mtbf1:1,2012-08-05T15:07:00Z,27.6610,-82.5940,0.0,29.48,1111122 
FWRI,ioos:station:wmo:mtbf1:1,2012-08-05T15:37:00Z,27.6610,-82.5940,0.0,29.63,1111122 
FWRI,ioos:station:wmo:mtbf1:1,2012-08-05T16:07:00Z,27.6610,-82.5940,0.0,29.6,1111122 
FWRI,ioos:station:wmo:mtbf1:1,2012-08-05T16:37:00Z,27.6610,-82.5940,0.0,29.9,1111122 
FWRI,ioos:station:wmo:mtbf1:1,2012-08-05T17:07:00Z,27.6610,-82.5940,0.0,29.91,1111122 
FWRI,ioos:station:wmo:mtbf1:1,2012-08-05T17:37:00Z,27.6610,-82.5940,0.0,29.92,1111122 
FWRI,ioos:station:wmo:mtbf1:1,2012-08-05T18:07:00Z,27.6610,-82.5940,0.0,30.11,1111122 
FWRI,ioos:station:wmo:mtbf1:1,2012-08-05T18:37:00Z,27.6610,-82.5940,0.0,30.31,1111122 
FWRI,ioos:station:wmo:mtbf1:1,2012-08-05T19:07:00Z,27.6610,-82.5940,0.0,30.64,1111122 
FWRI,ioos:station:wmo:mtbf1:1,2012-08-05T19:37:00Z,27.6610,-82.5940,0.0,30.83,1111122 
FWRI,ioos:station:wmo:mtbf1:1,2012-08-05T20:07:00Z,27.6610,-82.5940,0.0,31.18,1111122 
FWRI,ioos:station:wmo:mtbf1:1,2012-08-05T20:37:00Z,27.6610,-82.5940,0.0,31.37,1111122 
FWRI,ioos:station:wmo:mtbf1:1,2012-08-05T21:07:00Z,27.6610,-82.5940,0.0,31.41,1111122 
FWRI,ioos:station:wmo:mtbf1:1,2012-08-05T21:37:00Z,27.6610,-82.5940,0.0,31.4,1111122 
FWRI,ioos:station:wmo:mtbf1:1,2012-08-05T22:07:00Z,27.6610,-82.5940,0.0,31.34,1111122 
FWRI,ioos:station:wmo:mtbf1:1,2012-08-05T22:37:00Z,27.6610,-82.5940,0.0,31.19,1111122 
FWRI,ioos:station:wmo:mtbf1:1,2012-08-05T23:07:00Z,27.6610,-82.5940,0.0,30.75,1111122 
FWRI,ioos:station:wmo:mtbf1:1,2012-08-05T23:37:00Z,27.6610,-82.5940,0.0,30.93,1111122 
FWRI,ioos:station:wmo:mtbf1:1,2012-08-06T00:07:00Z,27.6610,-82.5940,0.0,30.79,1111122 
FWRI,ioos:station:wmo:mtbf1:1,2012-08-06T00:37:00Z,27.6610,-82.5940,0.0,30.58,1111122 
FWRI,ioos:station:wmo:mtbf1:1,2012-08-06T01:07:00Z,27.6610,-82.5940,0.0,30.21,1111122 
FWRI,ioos:station:wmo:mtbf1:1,2012-08-06T01:37:00Z,27.6610,-82.5940,0.0,30.11,1111122 
FWRI,ioos:station:wmo:mtbf1:1,2012-08-06T02:07:00Z,27.6610,-82.5940,0.0,29.81,1111122 
FWRI,ioos:station:wmo:mtbf1:1,2012-08-06T02:37:00Z,27.6610,-82.5940,0.0,29.59,1111122 
FWRI,ioos:station:wmo:mtbf1:1,2012-08-06T03:07:00Z,27.6610,-82.5940,0.0,29.05,1111122 
FWRI,ioos:station:wmo:mtbf1:1,2012-08-06T03:37:00Z,27.6610,-82.5940,0.0,28.66,1111122 
FWRI,ioos:station:wmo:mtbf1:1,2012-08-06T04:07:00Z,27.6610,-82.5940,0.0,28.62,1111122 
FWRI,ioos:station:wmo:mtbf1:1,2012-08-06T04:37:00Z,27.6610,-82.5940,0.0,28.78,1111122 
FWRI,ioos:station:wmo:mtbf1:1,2012-08-06T05:07:00Z,27.6610,-82.5940,0.0,29.69,1111122 
FWRI,ioos:station:wmo:mtbf1:1,2012-08-06T05:37:00Z,27.6610,-82.5940,0.0,29.85,1111122 
FWRI,ioos:station:wmo:mtbf1:1,2012-08-06T06:07:00Z,27.6610,-82.5940,0.0,29.89,1111122 
FWRI,ioos:station:wmo:mtbf1:1,2012-08-06T06:37:00Z,27.6610,-82.5940,0.0,30.01,1111122 
FWRI,ioos:station:wmo:mtbf1:1,2012-08-06T07:07:00Z,27.6610,-82.5940,0.0,30.07,1111122 
FWRI,ioos:station:wmo:mtbf1:1,2012-08-06T07:37:00Z,27.6610,-82.5940,0.0,30.23,1111122 
FWRI,ioos:station:wmo:mtbf1:1,2012-08-06T08:07:00Z,27.6610,-82.5940,0.0,30.39,1111122 
FWRI,ioos:station:wmo:mtbf1:1,2012-08-06T08:37:00Z,27.6610,-82.5940,0.0,30.51,1111122 
FWRI,ioos:station:wmo:mtbf1:1,2012-08-06T09:07:00Z,27.6610,-82.5940,0.0,30.61,1111122 
FWRI,ioos:station:wmo:mtbf1:1,2012-08-06T09:37:00Z,27.6610,-82.5940,0.0,30.77,1111122 
FWRI,ioos:station:wmo:mtbf1:1,2012-08-06T10:07:00Z,27.6610,-82.5940,0.0,30.97,1111122 
FWRI,ioos:station:wmo:mtbf1:1,2012-08-06T10:37:00Z,27.6610,-82.5940,0.0,30.77,1111122 
FWRI,ioos:station:wmo:mtbf1:1,2012-08-06T11:07:00Z,27.6610,-82.5940,0.0,30.65,1111122 
FWRI,ioos:station:wmo:mtbf1:1,2012-08-06T11:37:00Z,27.6610,-82.5940,0.0,30.44,1111122 
FWRI,ioos:station:wmo:mtbf1:1,2012-08-06T12:07:00Z,27.6610,-82.5940,0.0,30.19,1111122 
FWRI,ioos:station:wmo:mtbf1:1,2012-08-06T12:37:00Z,27.6610,-82.5940,0.0,30.27,1111122 
FWRI,ioos:station:wmo:mtbf1:1,2012-08-06T13:07:00Z,27.6610,-82.5940,0.0,30.24,1111122 
FWRI,ioos:station:wmo:mtbf1:1,2012-08-06T13:37:00Z,27.6610,-82.5940,0.0,30.2,1111122 
FWRI,ioos:station:wmo:mtbf1:1,2012-08-06T14:07:00Z,27.6610,-82.5940,0.0,30.11,1111122 
FWRI,ioos:station:wmo:mtbf1:1,2012-08-06T14:37:00Z,27.6610,-82.5940,0.0,29.95,1111122 
FWRI,ioos:station:wmo:mtbf1:1,2012-08-06T15:07:00Z,27.6610,-82.5940,0.0,29.73,1111122 
FWRI,ioos:station:wmo:mtbf1:1,2012-08-06T15:37:00Z,27.6610,-82.5940,0.0,28.82,1111122 
FWRI,ioos:station:wmo:mtbf1:1,2012-08-06T16:07:00Z,27.6610,-82.5940,0.0,28.82,1111122 
FWRI,ioos:station:wmo:mtbf1:1,2012-08-06T16:37:00Z,27.6610,-82.5940,0.0,29.49,1111122 
FWRI,ioos:station:wmo:mtbf1:1,2012-08-06T17:07:00Z,27.6610,-82.5940,0.0,29.54,1111122 